| time (UTC) | temp C | wind direction | speed KPH | gust KPH | rain 1hr cm | rain 24hr cm | rain mn cm | humidity % | barometer mb |
| 20260506044614 | 20 | 324 | 0.0 | 3.2 | 0.00 | 0.00 | 0.00 | 63 | 1010.8 |
| 20260506043058 | 20 | 263 | 0.0 | 3.2 | 0.00 | 0.00 | 0.00 | 62 | 1010.8 |
| 20260506041557 | 20 | 155 | 0.0 | 1.6 | 0.00 | 0.00 | 0.00 | 61 | 1010.7 |
| 20260506040054 | 20 | 173 | 0.0 | 0.0 | 0.00 | 0.00 | 0.00 | 61 | 1010.7 |
| 20260506034553 | 21 | 171 | 0.0 | 1.6 | 0.00 | 0.00 | 0.00 | 61 | 1010.9 |
| 20260506033055 | 21 | 290 | 0.0 | 1.6 | 0.00 | 0.00 | 0.00 | 60 | 1011.3 |
| 20260506031557 | 21 | 252 | 0.0 | 1.6 | 0.00 | 0.00 | 0.00 | 59 | 1011.2 |
| 20260506030052 | 21 | 17 | 0.0 | 1.6 | 0.00 | 0.00 | 0.00 | 58 | 1011.0 |
| 20260506024559 | 21 | 285 | 0.0 | 8.0 | 0.00 | 0.00 | 0.00 | 57 | 1011.5 |
| 20260506023053 | 21 | 109 | 0.0 | 4.8 | 0.00 | 0.00 | 0.00 | 57 | 1011.2 |
| 20260506021551 | 21 | 155 | 0.0 | 4.8 | 0.00 | 0.00 | 0.00 | 57 | 1010.8 |
| 20260506020050 | 21 | 160 | 0.0 | 4.8 | 0.00 | 0.00 | 0.00 | 57 | 1010.7 |
| 20260506014549 | 21 | 226 | 0.0 | 3.2 | 0.00 | 0.00 | 0.00 | 58 | 1010.5 |
| 20260506013049 | 20 | 103 | 0.0 | 1.6 | 0.00 | 0.00 | 0.00 | 58 | 1010.4 |
| 20260506011548 | 20 | 115 | 0.0 | 0.0 | 0.00 | 0.00 | 0.00 | 58 | 1010.3 |
| 20260506010048 | 20 | 130 | 0.0 | 1.6 | 0.00 | 0.00 | 0.00 | 60 | 1010.1 |
| 20260506004549 | 20 | 70 | 0.0 | 1.6 | 0.00 | 0.00 | 0.00 | 59 | 1010.2 |
| 20260506003047 | 20 | 70 | 0.0 | 0.0 | 0.00 | 0.00 | 0.00 | 59 | 1010.2 |
| 20260506001550 | 20 | 70 | 0.0 | 1.6 | 0.00 | 0.00 | 0.00 | 68 | 1010.4 |
| 20260506000045 | 20 | 70 | 0.0 | 0.0 | 0.00 | 0.00 | 0.00 | 65 | 1010.6 |
| 20260505234549 | 21 | 70 | 0.0 | 0.0 | 0.00 | 0.00 | 0.00 | 60 | 1010.4 |
| 20260505233043 | 21 | 83 | 0.0 | 0.0 | 0.00 | 0.00 | 0.00 | 61 | 1010.5 |
| 20260505231552 | 21 | 83 | 0.0 | 1.6 | 0.00 | 0.00 | 0.00 | 58 | 1010.5 |
| 20260505230054 | 21 | 70 | 0.0 | 1.6 | 0.00 | 0.00 | 0.00 | 57 | 1010.4 |
| 20260505224542 | 21 | 70 | 0.0 | 1.6 | 0.00 | 0.00 | 0.00 | 54 | 1010.2 |
| 20260505223040 | 21 | 69 | 0.0 | 1.6 | 0.00 | 0.00 | 0.00 | 53 | 1010.6 |
| 20260505221540 | 21 | 69 | 0.0 | 1.6 | 0.00 | 0.00 | 0.00 | 51 | 1010.3 |
| 20260505220040 | 21 | 172 | 0.0 | 3.2 | 0.00 | 0.00 | 0.00 | 54 | 1010.6 |
| 20260505214539 | 22 | 152 | 0.0 | 1.6 | 0.00 | 0.00 | 0.00 | 56 | 1010.3 |
| 20260505213047 | 22 | 10 | 0.0 | 8.0 | 0.00 | 0.00 | 0.00 | 50 | 1010.6 |
| 20260505211536 | 23 | 191 | 1.6 | 6.4 | 0.00 | 0.00 | 0.00 | 44 | 1010.8 |
| 20260505210036 | 24 | 163 | 0.0 | 4.8 | 0.00 | 0.00 | 0.00 | 40 | 1011.2 |
| 20260505204533 | 25 | 203 | 1.6 | 8.0 | 0.00 | 0.00 | 0.00 | 36 | 1011.0 |
| 20260505203031 | 26 | 354 | 1.6 | 8.0 | 0.00 | 0.00 | 0.00 | 39 | 1011.3 |
| 20260505201528 | 26 | 308 | 0.0 | 4.8 | 0.00 | 0.00 | 0.00 | 41 | 1011.5 |
| 20260505200028 | 27 | 113 | 3.2 | 12.9 | 0.00 | 0.00 | 0.00 | 38 | 1011.8 |
| 20260505194525 | 27 | 328 | 3.2 | 6.4 | 0.00 | 0.00 | 0.00 | 37 | 1011.6 |
| 20260505193022 | 27 | 146 | 3.2 | 11.3 | 0.00 | 0.00 | 0.00 | 36 | 1011.9 |
| 20260505191522 | 26 | 136 | 1.6 | 12.9 | 0.00 | 0.00 | 0.00 | 35 | 1012.0 |
| 20260505190021 | 27 | 184 | 1.6 | 9.7 | 0.00 | 0.00 | 0.00 | 38 | 1012.1 |
| 20260505184515 | 27 | 333 | 3.2 | 9.7 | 0.00 | 0.00 | 0.00 | 35 | 1012.0 |
| 20260505183013 | 26 | 293 | 1.6 | 16.1 | 0.00 | 0.00 | 0.00 | 40 | 1012.5 |
| 20260505181509 | 27 | 163 | 1.6 | 8.0 | 0.00 | 0.00 | 0.00 | 38 | 1013.0 |
| 20260505180019 | 26 | 297 | 1.6 | 9.7 | 0.00 | 0.00 | 0.00 | 44 | 1012.9 |
| 20260505174504 | 26 | 224 | 0.0 | 12.9 | 0.00 | 0.00 | 0.00 | 46 | 1012.9 |
| 20260505173002 | 25 | 319 | 0.0 | 6.4 | 0.00 | 0.00 | 0.00 | 45 | 1013.2 |
| 20260505171600 | 25 | 188 | 0.0 | 4.8 | 0.00 | 0.00 | 0.00 | 46 | 1013.6 |
| 20260505170059 | 25 | 108 | 0.0 | 8.0 | 0.00 | 0.00 | 0.00 | 46 | 1013.9 |
| 20260505164555 | 25 | 316 | 1.6 | 6.4 | 0.00 | 0.00 | 0.00 | 52 | 1014.0 |
| 20260505163053 | 23 | 122 | 1.6 | 14.5 | 0.00 | 0.00 | 0.00 | 49 | 1014.1 |
| 20260505161553 | 23 | 338 | 0.0 | 8.0 | 0.00 | 0.00 | 0.00 | 54 | 1013.8 |
| 20260505153040 | 21 | 79 | 0.0 | 4.8 | 0.00 | 0.00 | 0.00 | 60 | 1014.4 |
| 20260505151536 | 20 | 311 | 1.6 | 4.8 | 0.00 | 0.00 | 0.00 | 65 | 1014.3 |
| 20260505124506 | 13 | 113 | 0.0 | 0.0 | 0.00 | 0.00 | 0.00 | 80 | 1014.2 |
| 20260505123002 | 12 | 113 | 0.0 | 0.0 | 0.00 | 0.00 | 0.00 | 85 | 1014.0 |
| 20260505121601 | 11 | 113 | 0.0 | 0.0 | 0.00 | 0.00 | 0.00 | 89 | 1013.7 |
| 20260505120105 | 10 | 113 | 0.0 | 0.0 | 0.00 | 0.00 | 0.00 | 92 | 1013.9 |
| 20260505114601 | 10 | 113 | 0.0 | 0.0 | 0.00 | 0.00 | 0.00 | 91 | 1013.6 |
| 20260505113056 | 10 | 113 | 0.0 | 0.0 | 0.00 | 0.00 | 0.00 | 91 | 1013.5 |
| 20260505111554 | 9 | 113 | 0.0 | 0.0 | 0.00 | 0.00 | 0.00 | 90 | 1013.4 |
| 20260505101600 | 10 | 113 | 0.0 | 0.0 | 0.00 | 0.00 | 0.00 | 87 | 1012.8 |
| 20260505100059 | 10 | 113 | 0.0 | 0.0 | 0.00 | 0.00 | 0.00 | 86 | 1012.5 |
| 20260505094539 | 11 | 119 | 0.0 | 0.0 | 0.00 | 0.00 | 0.00 | 86 | 1012.6 |
| 20260505093038 | 11 | 119 | 0.0 | 0.0 | 0.00 | 0.00 | 0.00 | 84 | 1012.7 |
| 20260505091534 | 11 | 119 | 0.0 | 0.0 | 0.00 | 0.00 | 0.00 | 83 | 1012.8 |
| 20260505090033 | 11 | 119 | 0.0 | 0.0 | 0.00 | 0.00 | 0.00 | 82 | 1012.7 |
| 20260505084531 | 12 | 119 | 0.0 | 1.6 | 0.00 | 0.00 | 0.00 | 83 | 1012.4 |
| 20260505083028 | 12 | 119 | 0.0 | 0.0 | 0.00 | 0.00 | 0.00 | 81 | 1012.8 |
| 20260505081526 | 12 | 119 | 0.0 | 1.6 | 0.00 | 0.00 | 0.00 | 81 | 1012.7 |
| 20260505080023 | 12 | 119 | 0.0 | 0.0 | 0.00 | 0.00 | 0.00 | 80 | 1012.8 |
| 20260505074522 | 12 | 119 | 0.0 | 0.0 | 0.00 | 0.00 | 0.00 | 80 | 1012.9 |
| 20260505073033 | 12 | 120 | 0.0 | 0.0 | 0.00 | 0.00 | 0.00 | 79 | 1013.0 |
| 20260505071518 | 12 | 119 | 0.0 | 0.0 | 0.00 | 0.00 | 0.00 | 78 | 1013.0 |
| 20260505070017 | 12 | 119 | 0.0 | 0.0 | 0.00 | 0.00 | 0.00 | 78 | 1012.9 |
| 20260505064518 | 13 | 119 | 0.0 | 1.6 | 0.00 | 0.00 | 0.00 | 77 | 1013.1 |
| 20260505063012 | 13 | 119 | 0.0 | 0.0 | 0.00 | 0.00 | 0.00 | 75 | 1013.1 |
| 20260505061520 | 13 | 119 | 0.0 | 0.0 | 0.00 | 0.00 | 0.00 | 75 | 1013.1 |
| 20260505060008 | 13 | 119 | 0.0 | 0.0 | 0.00 | 0.00 | 0.00 | 74 | 1013.0 |
| 20260505054507 | 13 | 119 | 0.0 | 0.0 | 0.00 | 0.00 | 0.00 | 74 | 1013.1 |
| 20260505053007 | 13 | 119 | 0.0 | 0.0 | 0.00 | 0.00 | 0.00 | 73 | 1013.1 |
| 20260505051507 | 14 | 119 | 0.0 | 0.0 | 0.00 | 0.00 | 0.00 | 71 | 1013.1 |